Zurück zum Katalog

STARLINK-36733

AktivKommunikationSSO
NORAD 67811·PAYLOAD·🇺🇸 United States

Gestartet Feb 15, 2026 von Vandenberg Space Force Base

Loading…

Nächste Überflüge (nächste 24 Stunden)

TLE

AktuellSource: CelesTrak SupGP

Epoche: Sep 14, 2026, 23:02 UTC

1 67811C 26032Q   26257.96020833  .00069024  00000+0  21430-2 0  2578
2 67811  97.2855  84.4921 0001604  92.4121 111.6164 15.33398911    13

Verfolge STARLINK-36733 in Echtzeit mit AllMySat

Download on the App Store